CCA983 ZBAA-KLAX

Flight info

Callsign CCA983
Flight time N/A
Altitude 33100
Route MUGLO2G MUGLO W34 VAPGU W100 ORAVA W201 UNSEK A326 DONVO G597 AGAVO/N0494F330 Y644 EGOBA Y697 LANAT Y51 SAMON Y142 GTC Y512 OATIS Y889 PUTER/N0488F340 A590 POXED/N0486F350 A590 PUGGY/N0490F370 R341 ODK J123 CJAYY B757 KATCH B453 TAMRU/N0482F390 B453 BOXER DCT FOT DCT ENI DCT OAK DCT BURGL IRNMN2
Aircraft B77W/H-SDE1E2E3FGHIJ2J3J4J5M1RWXY/LB1D1

Departure

Time N/A
Airport Beijing Capital International Airport (ZBAA)

Arrival

Time 2026-04-22 19:38
Airport Los Angeles International Airport (KLAX)
Time Latitude Longitude Altitude Speed Heading
2026-04-22 18:55 37.25879 -121.59091 39237 ft 521 kts 150°
2026-04-22 18:55 37.20142 -121.53612 39204 ft 520 kts 150°
2026-04-22 18:56 37.14384 -121.48124 39274 ft 520 kts 150°
2026-04-22 18:56 37.08615 -121.42635 39294 ft 519 kts 150°
2026-04-22 18:57 37.02884 -121.37193 39295 ft 518 kts 150°
2026-04-22 18:57 36.97179 -121.31785 39280 ft 516 kts 151°
2026-04-22 18:58 36.91436 -121.26352 39286 ft 516 kts 151°
2026-04-22 18:58 36.85713 -121.20948 39292 ft 516 kts 151°
2026-04-22 18:59 36.80006 -121.15571 39256 ft 517 kts 152°
2026-04-22 18:59 36.74260 -121.10167 39046 ft 517 kts 152°
2026-04-22 19:00 36.71428 -121.07506 38907 ft 515 kts 152°
2026-04-22 19:00 36.68550 -121.04806 38798 ft 515 kts 152°
2026-04-22 19:00 36.62858 -120.99472 38610 ft 514 kts 152°
2026-04-22 19:01 36.57136 -120.94122 38768 ft 515 kts 152°
2026-04-22 19:01 36.51418 -120.88786 38938 ft 515 kts 152°
2026-04-22 19:02 36.48559 -120.86121 39043 ft 515 kts 152°
2026-04-22 19:02 36.45694 -120.83453 39155 ft 516 kts 152°
2026-04-22 19:02 36.39918 -120.78083 39311 ft 516 kts 152°
2026-04-22 19:03 36.34170 -120.72749 39330 ft 516 kts 152°
2026-04-22 19:03 36.28443 -120.67443 39322 ft 516 kts 152°
2026-04-22 19:04 36.22719 -120.62150 39318 ft 516 kts 152°
2026-04-22 19:04 36.16946 -120.56822 39314 ft 516 kts 153°
2026-04-22 19:05 36.11212 -120.51540 39218 ft 515 kts 153°
2026-04-22 19:05 36.08347 -120.48906 39097 ft 515 kts 153°
2026-04-22 19:05 36.05486 -120.46275 38978 ft 513 kts 153°
2026-04-22 19:06 35.99748 -120.41009 38982 ft 514 kts 153°
2026-04-22 19:07 35.91169 -120.33154 39248 ft 514 kts 154°
2026-04-22 19:07 35.85409 -120.27891 39301 ft 514 kts 154°
2026-04-22 19:08 35.79681 -120.22668 39301 ft 514 kts 154°
2026-04-22 19:08 35.73926 -120.17429 39300 ft 514 kts 154°
2026-04-22 19:09 35.68179 -120.12206 39285 ft 514 kts 154°
2026-04-22 19:09 35.63387 -120.07910 39286 ft 513 kts 155°
2026-04-22 19:10 35.56593 -120.01966 39290 ft 513 kts 155°
2026-04-22 19:10 35.50793 -119.96895 39217 ft 512 kts 155°
2026-04-22 19:11 35.44992 -119.91829 39223 ft 513 kts 155°
2026-04-22 19:11 35.39164 -119.86747 39220 ft 514 kts 155°
2026-04-22 19:12 35.33336 -119.81671 39137 ft 514 kts 155°
2026-04-22 19:12 35.27513 -119.76605 38605 ft 511 kts 155°
2026-04-22 19:12 35.24585 -119.74067 37638 ft 521 kts 155°
2026-04-22 19:13 35.21627 -119.71509 36615 ft 530 kts 154°
2026-04-22 19:13 35.18616 -119.68901 35760 ft 532 kts 154°
2026-04-22 19:13 35.15601 -119.66287 34981 ft 531 kts 154°
2026-04-22 19:13 35.12596 -119.63685 33980 ft 530 kts 154°
2026-04-22 19:14 35.09604 -119.61097 33022 ft 528 kts 154°
2026-04-22 19:14 35.06614 -119.58513 32061 ft 526 kts 153°
2026-04-22 19:14 35.03643 -119.55949 31078 ft 525 kts 153°
2026-04-22 19:14 35.00669 -119.53383 30194 ft 521 kts 153°
2026-04-22 19:15 34.98711 -119.51693 29779 ft 514 kts 153°
2026-04-22 19:15 34.94890 -119.48399 28919 ft 503 kts 153°
2026-04-22 19:15 34.92066 -119.45969 28250 ft 496 kts 153°
2026-04-22 19:15 34.89254 -119.43552 27660 ft 488 kts 152°
2026-04-22 19:16 34.86497 -119.41184 27082 ft 480 kts 152°
2026-04-22 19:16 34.83815 -119.38885 26498 ft 474 kts 152°
2026-04-22 19:16 34.81126 -119.36580 25903 ft 467 kts 152°
2026-04-22 19:16 34.78507 -119.34338 25309 ft 462 kts 153°
2026-04-22 19:17 34.75871 -119.32084 24752 ft 456 kts 153°
2026-04-22 19:17 34.73313 -119.29898 24243 ft 454 kts 153°
2026-04-22 19:17 34.70712 -119.27684 23671 ft 462 kts 153°
2026-04-22 19:17 34.68087 -119.25446 23056 ft 461 kts 152°
2026-04-22 19:18 34.65477 -119.23220 22429 ft 457 kts 152°
2026-04-22 19:18 34.62888 -119.21012 21799 ft 452 kts 152°
2026-04-22 19:18 34.60358 -119.18855 21187 ft 447 kts 152°
2026-04-22 19:18 34.57798 -119.16673 20570 ft 442 kts 152°
2026-04-22 19:19 34.55316 -119.14563 19969 ft 437 kts 152°
2026-04-22 19:19 34.52852 -119.12471 19367 ft 432 kts 152°
2026-04-22 19:19 34.50407 -119.10396 18761 ft 427 kts 152°
2026-04-22 19:19 34.47971 -119.08334 18176 ft 423 kts 152°
2026-04-22 19:20 34.45602 -119.06324 17598 ft 418 kts 152°
2026-04-22 19:20 34.43230 -119.04315 16892 ft 414 kts 151°
2026-04-22 19:20 34.40895 -119.02339 16120 ft 409 kts 151°
2026-04-22 19:20 34.38585 -119.00382 15528 ft 400 kts 151°
2026-04-22 19:21 34.36324 -118.98468 14978 ft 393 kts 151°
2026-04-22 19:21 34.34009 -118.96522 14455 ft 404 kts 150°
2026-04-22 19:21 34.31714 -118.94587 14027 ft 402 kts 150°
2026-04-22 19:21 34.29445 -118.92675 13482 ft 400 kts 150°
2026-04-22 19:22 34.27174 -118.90759 12869 ft 397 kts 150°
2026-04-22 19:22 34.24942 -118.88872 12571 ft 385 kts 149°
2026-04-22 19:22 34.22832 -118.86941 12470 ft 368 kts 147°
2026-04-22 19:22 34.20855 -118.85101 12350 ft 354 kts 147°
2026-04-22 19:23 34.18929 -118.83315 12206 ft 341 kts 147°
2026-04-22 19:23 34.17081 -118.81610 12060 ft 329 kts 147°
2026-04-22 19:23 34.15304 -118.79906 11861 ft 323 kts 142°
2026-04-22 19:23 34.13665 -118.78084 11535 ft 323 kts 141°
2026-04-22 19:24 34.12020 -118.76240 11199 ft 321 kts 141°
2026-04-22 19:24 34.10379 -118.74432 10884 ft 317 kts 141°
2026-04-22 19:24 34.08761 -118.72665 10581 ft 314 kts 141°
2026-04-22 19:24 34.07150 -118.70913 10277 ft 310 kts 141°
2026-04-22 19:25 34.05556 -118.69177 9972 ft 307 kts 141°
2026-04-22 19:25 34.04023 -118.67405 9578 ft 309 kts 130°
2026-04-22 19:25 34.03039 -118.65095 9168 ft 312 kts 105°
2026-04-22 19:25 34.02623 -118.62537 8858 ft 308 kts 97°
2026-04-22 19:26 34.02359 -118.59988 8557 ft 304 kts 96°
2026-04-22 19:26 34.02121 -118.57484 8254 ft 301 kts 96°
2026-04-22 19:26 34.01887 -118.54989 7951 ft 298 kts 96°
2026-04-22 19:26 34.01659 -118.52541 7698 ft 293 kts 96°
2026-04-22 19:27 34.01432 -118.50121 7465 ft 287 kts 96°
2026-04-22 19:27 34.01210 -118.47766 7392 ft 275 kts 96°
2026-04-22 19:27 34.01110 -118.45548 7348 ft 262 kts 83°
2026-04-22 19:27 34.01409 -118.43391 7108 ft 259 kts 77°
2026-04-22 19:28 34.01781 -118.41270 6828 ft 257 kts 77°
2026-04-22 19:28 34.02141 -118.39195 6565 ft 256 kts 77°
2026-04-22 19:28 34.02498 -118.37114 6420 ft 248 kts 77°
2026-04-22 19:28 34.02836 -118.35109 6287 ft 242 kts 80°
2026-04-22 19:29 34.03036 -118.33107 6092 ft 239 kts 84°
2026-04-22 19:29 34.03211 -118.31098 6017 ft 240 kts 83°
2026-04-22 19:29 34.03410 -118.29088 6006 ft 249 kts 83°
2026-04-22 19:29 34.03640 -118.26990 5896 ft 254 kts 82°
2026-04-22 19:30 34.03803 -118.25583 5855 ft 254 kts 82°
2026-04-22 19:30 34.04106 -118.22789 5640 ft 253 kts 83°
2026-04-22 19:30 34.04335 -118.20676 5356 ft 252 kts 83°
2026-04-22 19:30 34.04563 -118.18599 5041 ft 252 kts 83°
2026-04-22 19:31 34.04799 -118.16509 4723 ft 247 kts 83°
2026-04-22 19:31 34.04934 -118.14484 4399 ft 241 kts 95°
2026-04-22 19:31 34.04400 -118.12635 4150 ft 230 kts 125°
2026-04-22 19:31 34.03262 -118.11384 4020 ft 223 kts 153°
2026-04-22 19:32 34.01764 -118.10902 4004 ft 224 kts 180°
2026-04-22 19:32 34.00208 -118.11192 4009 ft 224 kts 194°
2026-04-22 19:32 33.98833 -118.11997 3996 ft 224 kts 222°
2026-04-22 19:32 33.98001 -118.13556 3990 ft 224 kts 253°
2026-04-22 19:33 33.97705 -118.15397 4000 ft 223 kts 262°
2026-04-22 19:33 33.97529 -118.17239 3945 ft 216 kts 263°
2026-04-22 19:33 33.97355 -118.19002 3664 ft 212 kts 263°
2026-04-22 19:33 33.97192 -118.20733 3386 ft 204 kts 263°
2026-04-22 19:34 33.97026 -118.22409 3119 ft 197 kts 263°
2026-04-22 19:34 33.96865 -118.24016 2860 ft 191 kts 263°
2026-04-22 19:34 33.96709 -118.25575 2603 ft 183 kts 262°
2026-04-22 19:34 33.96561 -118.27023 2372 ft 168 kts 262°
2026-04-22 19:35 33.96424 -118.28365 2165 ft 154 kts 262°
2026-04-22 19:35 33.96296 -118.29621 1961 ft 144 kts 262°
2026-04-22 19:35 33.96217 -118.30394 1837 ft 139 kts 262°
2026-04-22 19:35 33.96063 -118.31902 1573 ft 133 kts 261°
2026-04-22 19:36 33.95950 -118.33005 1381 ft 133 kts 261°
2026-04-22 19:36 33.95835 -118.34100 1180 ft 131 kts 261°
2026-04-22 19:36 33.95714 -118.35198 980 ft 133 kts 262°
2026-04-22 19:36 33.95609 -118.36317 823 ft 132 kts 262°
2026-04-22 19:37 33.95507 -118.37392 658 ft 129 kts 261°
2026-04-22 19:37 33.95387 -118.38469 451 ft 127 kts 261°
2026-04-22 19:37 33.95281 -118.39517 274 ft 128 kts 261°
2026-04-22 19:37 33.95173 -118.40582 139 ft 125 kts 261°
2026-04-22 19:38 33.95080 -118.41484 133 ft 90 kts 263°
2026-04-22 19:38 33.95017 -118.42089 131 ft 54 kts 262°
2026-04-22 19:38 33.94938 -118.42378 129 ft 26 kts 235°
2026-04-22 19:38 33.94853 -118.42478 128 ft 7 kts 211°
2026-04-22 19:39 33.94796 -118.42491 127 ft 9 kts 179°
2026-04-22 19:39 33.94730 -118.42484 126 ft 9 kts 173°
2026-04-22 19:39 33.94682 -118.42476 126 ft 5 kts 173°
2026-04-22 19:39 33.94639 -118.42470 125 ft 6 kts 174°
2026-04-22 19:40 33.94598 -118.42442 124 ft 7 kts 128°
2026-04-22 19:40 33.94590 -118.42346 125 ft 16 kts 83°
2026-04-22 19:40 33.94606 -118.42182 126 ft 20 kts 83°
2026-04-22 19:40 33.94622 -118.42023 128 ft 18 kts 83°
2026-04-22 19:41 33.94635 -118.41872 130 ft 17 kts 85°
2026-04-22 19:41 33.94648 -118.41726 131 ft 19 kts 83°
2026-04-22 19:41 33.94666 -118.41553 133 ft 21 kts 83°
2026-04-22 19:41 33.94685 -118.41382 133 ft 20 kts 83°
2026-04-22 19:42 33.94655 -118.41286 135 ft 11 kts 155°
2026-04-22 19:42 33.94579 -118.41268 135 ft 11 kts 174°
2026-04-22 19:42 33.94500 -118.41258 134 ft 11 kts 174°
2026-04-22 19:42 33.94423 -118.41247 134 ft 11 kts 172°
2026-04-22 19:43 33.94273 -118.41224 135 ft 9 kts 173°
2026-04-22 19:43 33.94205 -118.41214 135 ft 7 kts 173°
2026-04-22 19:43 33.94178 -118.41193 135 ft 4 kts 118°
2026-04-22 19:44 33.94174 -118.41154 136 ft 4 kts 87°
2026-04-22 19:44 33.94175 -118.41140 137 ft 0 kts 85°
2026-04-22 19:44 33.94177 -118.41106 137 ft 1 kts 84°
2026-04-22 19:44 33.94177 -118.41103 137 ft 0 kts 84°